Temp
10 9 9 10 10 10 9 9 9 10 10 9 9 8 9 9 9 10 11 10 11 11
10 10 9 9 10 10 9 9 9 8 8 8 9 8 8 8 9 9 10 10 10 11
9 9 10 9 9 9 9 9 8 8 9 9 9 9 9 9 9 9 10 10 10 10
10 10 9 9 9 9 9 8 10 10 10 9 9 9 8 8 9 9 10 10 10 10
10 10 9 9 10 9 9 9 10 10 10 9 9 9 8 9 9 9 9 9 10 10
9 9 9 9 10 10 10 10 10 10 10 9 9 9 9 9 9 10 10 9 10 9
9 9 9 9 10 9 10 10 10 10 10 10 10 9 9 9 9 9 9 9 9 9
9 9 9 9 10 10 10 10 10 10 10 9 9 9 9 9 9 9 9 10 9 9
13 11 9 9 9 9 9 9 10 9 9 9 9 9 9 9 9 9 9 9 8 9
13 13 12 11 9 9 9 9 9 9 10 10 9 10 10 9 8 8 9 9 9 9
12 13 12 11 10 9 9 9 9 9 10 9 10 9 9 9 9 9 9 8 8 7
11 12 12 12 11 10 9 9 9 9 9 9 9 9 9 9 8 8 8 7 4 1
11 11 11 11 11 10 9 9 9 9 9 9 9 9 8 8 8 7 4 -0 -1 -1
11 10 10 11 10 10 10 10 9 9 8 7 6 6 5 5 6 5 1 -2 -3 -4
Height
1436 1440 1444 1448 1452 1456 1458 1463 1470 1476 1481 1484 1493 1497 1503 1508 1513 1520 1523 1528 1530 1533
1436 1438 1442 1447 1452 1456 1459 1462 1466 1473 1480 1486 1493 1497 1501 1506 1512 1516 1520 1523 1526 1528
1434 1438 1441 1445 1449 1454 1457 1460 1464 1473 1480 1485 1490 1495 1502 1506 1509 1513 1516 1519 1521 1523
1431 1435 1439 1443 1447 1451 1456 1460 1466 1471 1476 1482 1488 1493 1497 1501 1506 1509 1511 1514 1516 1517
1428 1432 1435 1439 1443 1448 1452 1458 1463 1469 1473 1479 1484 1489 1493 1496 1500 1503 1505 1508 1510 1511
1423 1427 1431 1435 1440 1445 1449 1454 1459 1464 1469 1475 1479 1484 1488 1492 1495 1498 1500 1502 1504 1505
1416 1422 1427 1432 1437 1441 1446 1451 1455 1459 1465 1469 1473 1477 1482 1486 1488 1492 1494 1496 1496 1497
1411 1417 1422 1427 1432 1438 1443 1448 1453 1456 1460 1464 1467 1471 1475 1479 1482 1486 1486 1487 1488 1488
1404 1409 1415 1421 1427 1432 1437 1442 1447 1452 1456 1459 1461 1463 1468 1472 1475 1478 1479 1479 1479 1479
1399 1402 1408 1414 1420 1425 1431 1437 1442 1446 1449 1451 1454 1457 1461 1465 1468 1470 1471 1471 1471 1471
1395 1397 1404 1409 1415 1421 1426 1431 1436 1440 1443 1445 1447 1450 1454 1458 1461 1462 1462 1463 1462 1462
1394 1397 1399 1404 1410 1414 1419 1426 1430 1434 1437 1440 1442 1443 1447 1452 1454 1456 1456 1456 1455 1456
1390 1394 1398 1400 1404 1409 1415 1420 1425 1428 1432 1434 1435 1437 1438 1440 1443 1444 1444 1448 1452 1454
1385 1388 1393 1398 1403 1406 1410 1413 1416 1420 1423 1426 1429 1429 1431 1432 1433 1434 1436 1441 1445 1449
Wind_Speed
13 17 22 28 34 44 51 48 46 48 44 42 41 44 43 36 36 34 30 26 23 20
19 19 19 25 30 38 48 50 47 43 40 36 31 31 32 36 39 34 30 27 24 27
24 23 22 26 33 37 46 52 47 40 39 40 39 39 36 40 35 31 32 31 31 30
26 25 25 28 32 35 37 34 39 48 47 44 41 38 33 38 40 37 33 33 31 31
28 30 29 28 28 32 33 37 38 39 42 43 37 38 39 40 39 36 33 31 31 36
33 34 34 32 32 33 33 33 34 36 38 44 38 40 40 40 40 42 43 40 37 35
38 36 37 33 32 35 35 34 35 36 37 40 38 39 42 41 38 38 40 42 42 43
38 37 37 37 34 34 35 35 34 35 35 36 37 40 41 39 37 36 38 42 46 46
33 35 36 38 37 36 36 36 33 32 32 30 32 37 37 39 38 37 37 40 42 40
35 34 35 33 37 39 39 37 36 33 32 33 34 33 32 33 35 36 38 39 41 41
37 35 35 33 34 34 38 41 41 38 37 37 38 38 37 36 36 38 36 35 32 33
40 36 35 33 33 37 36 38 40 41 38 38 38 38 36 35 35 37 36 33 28 21
37 37 35 36 36 35 35 37 41 41 41 40 39 40 40 40 38 37 31 24 21 19
37 34 36 37 36 37 37 42 43 41 37 32 31 32 29 30 31 32 31 28 24 19
Wind_Direction
198 202 202 203 206 206 202 187 191 194 198 193 205 203 201 206 197 214 212 220 226 235
203 208 201 210 212 210 202 198 191 186 190 195 201 208 207 200 210 211 218 227 236 243
210 213 214 213 213 208 211 203 194 193 206 210 213 217 221 211 216 227 228 233 243 252
211 214 219 218 219 219 219 203 205 209 212 218 221 222 211 218 225 233 236 242 248 250
211 212 217 220 220 220 216 215 220 221 220 215 219 214 218 223 225 234 237 251 259 256
214 215 219 218 217 219 221 222 224 225 222 217 227 224 225 230 236 245 252 261 260 259
214 216 219 219 218 218 219 223 224 227 227 229 234 233 231 237 243 249 251 252 254 261
213 215 217 220 218 217 218 222 226 230 233 236 239 238 239 242 247 252 250 250 253 261
214 220 219 220 221 221 222 223 223 228 232 235 238 238 241 245 246 246 249 253 255 257
217 218 222 222 220 223 224 223 226 229 230 237 241 240 238 240 244 248 251 250 250 251
225 221 222 223 223 222 225 225 227 229 232 233 237 241 242 240 240 242 240 240 238 238
236 227 222 223 223 222 224 221 226 228 231 233 235 240 241 239 239 241 241 233 220 207
234 232 228 225 222 220 222 223 226 229 230 231 232 237 241 240 237 222 200 178 166 168
226 227 227 226 225 223 222 221 220 218 214 211 213 210 207 204 211 202 182 167 154 142